Showing default

DROID-001, 56965

Orbit data source: Space-Track

DROID-001, 56965 is a payload satellite owned by Turion Space (US) in LEO that was launched on Mon, 12 Jun 2023 UTC via an FALCON 9 launch vehicle from the Air Force Western Test Range (AFWTR). Payloads include a variety of satellites, spacecraft, and rockets equipped with specific instruments for various scientific and technological missions. These include communications satellites like Starlink; space stations such as the ISS; scientific satellites like the Hubble; Earth observation satellites from companies like Planet Labs, Umbra, and HawkEye 360; GPS; miniature CubeSats for education and research; and military/defense satellites.

Loading next visibility...
DROID-001 details
Identifier
56965, 2023-084AK
Orbit
LEO
Last TLE update18 hours ago
Origin
Flag of USTurion Space (US)
ManufacturerNanoAvionics
MissionOperational Commercial Technology
Bus & MotorCUBESAT MP42H, Unknown motor
Mass32 kg wet, 32 kg dry
Launch date (UTC)
2023-06-12 (1 year ago)
Launch vehicle
FALCON 9
Launch site
Air Force Western Test Range (AFWTR)
Object type
Payload
Rocket body
Debris
Shape & HBRBox + 2 Pan, 0.9 m
Radar Cross Section0.257 m², Medium (>0.1 m² and < 1m²)

Expand to show TLE details & history

TLE from 18 hours ago
0 DROID-001
1 56965U 23084AK  24325.59278125  .00032410  00000-0  10509-2 0  9990
2 56965  97.5538  86.3720 0009038 176.1120 184.0193 15.31882548 80025
Epoch: 2024-11-20T14:13Z
Definitive object data (Epoch: 2024-11-20T14:13:36.299Z)
Latitude-0.00006°
Longitude172.88411°
Altitude479.474 km
Speed7.622 km/s
True Right ascension05h 45m 29s
True Declination0° 00' 00"
Sunlit
Object was in full shadow at TLE epoch
Visualization TLE readout
Latitude63.38277°
Longitude158.37136°
Altitude483.023 km
Speed7.629 km/s
Apparent Right ascension16h 48m 28s
Apparent Declination48° 18' 41"
Sunlit
Object is in full shadow
Visualization observer readout
Local Sidereal Time04:47:49
Azimuth359.892° N
Elevation-1.772°
Doppler factor1
Orbital elements
Apogee altitude473.339 km
Perigee altitude460.966 km
Semi-major axis6,845.289 km
Eccentricity0.0009038
Inclination97.5538°
RAAN86.372°
Arg. of periapsis176.112°
True anomaly184.01205°
Mean anomaly184.0193°
Eccentric anomaly184.01567°
Mean motion3.83226 °/min
BSTAR0.0010509
Orbital period93.94 mins
Loading maneuver chart data...
Loading historical data...
Loading historical data...
Loading historical data...
Loading historical data...
Loading historical data...
Loading historical data...
Loading historical data...

DROID-001 Visibility forecast

Observer location: undefined°, undefined

Span
Click to sort rows by Start time (UTC) header in descending order
Start Az.
Max El. time (UTC)
Max El. Az.
Max El.
End time (UTC)
End Az.
4 mins2024-11-21 20:36:04.109Z56.099° ENE2024-11-21 20:37:04.109Z82.413° E25.126°2024-11-21 20:40:04.109Z155.019° SSE
|